Location: Joplin, MO
(37.0842°N, 94.5133°W)
Time: 09:53:27
(UTC+01:00)

N. Korean satellite - Visible Passes

Search period start: 08 December 2022 00:00
Search period end: 18 December 2022 00:00
Orbit: 421 x 452 km, 97.3° (Epoch: 07 December)

Date Brightness Start Highest point End Pass type
(mag) Time Alt. Az. Time Alt. Az. Time Alt. Az.
08 Dec 6.3 12:47:33 10° N 12:50:52 59° WNW 12:54:08 10° SSW visible
09 Dec 9.7 00:48:16 10° SW 00:50:11 14° W 00:52:06 10° WNW visible
09 Dec 8.1 12:08:43 10° NNE 12:11:47 32° E 12:14:48 10° SSE visible
09 Dec 8.4 13:42:56 10° NW 13:43:54 11° WNW 13:44:51 10° W visible
10 Dec 6.9 13:01:57 10° N 13:05:03 35° WNW 13:08:06 10° SW visible
11 Dec 7.0 12:22:39 10° NNE 12:25:56 54° E 12:29:09 10° S visible
12 Dec 9.5 11:44:35 10° ENE 11:46:31 15° E 11:48:27 10° SE visible
12 Dec 7.5 13:16:18 10° NNW 13:18:58 23° WNW 13:21:37 10° SW visible
13 Dec 6.2 12:36:46 12° NNE 12:39:49 89° NW 12:43:06 10° SSW visible
14 Dec 9.5 00:36:19 10° SW 00:38:54 20° W 00:41:31 10° NW visible
14 Dec 8.8 11:58:10 12° NE 12:00:23 22° E 12:03:01 10° SSE visible
14 Dec 8.0 13:31:33 13° NW 13:32:38 15° WNW 13:34:37 10° WSW visible
15 Dec 6.3 12:52:23 35° NNW 12:53:27 53° WNW 12:56:39 10° SSW visible
16 Dec 9.8 00:50:50 10° SW 00:52:36 13° W 00:54:22 10° WNW visible
16 Dec 8.0 12:13:00 28° ENE 12:13:59 34° E 12:16:59 10° SSE visible
17 Dec 6.9 13:06:51 33° WNW 13:06:51 33° WNW 13:09:48 10° SW visible
